Change the Weather History Date:

Saturday, January 4, 2014

  Actual Average Record
Temperature  
Mean Temperature 26 °F -  
Max Temperature 39 °F 38 °F 60 °F (2001)
Min Temperature 13 °F 12 °F -13 °F (1999)
Degree Days  
Heating Degree Days 38    
Moisture  
Dew Point 14 °F    
Average Humidity 62    
Maximum Humidity 83    
Minimum Humidity 38    
Precipitation  
Precipitation 0.00 in - - ()
Sea Level Pressure  
Sea Level Pressure 29.96 in    
Wind  
Wind Speed 14 mph (North)    
Max Wind Speed 24 mph    
Max Gust Speed 34 mph    
Visibility 10 miles    
Events      
Averages and records for this station are not official NWS values.
T = Trace of Precipitation, MM = Missing Value Source: NWS Daily Summary

Daily Weather History Graph

Daily Weather History Graph

Search for Another Location

Airport or City:

Trip Planner

Search our weather history database for the weather conditions in past years. The results will help you decide how hot, cold, wet, or windy it might be!

Date:

Astronomy

Jan. 04, 2014 Rise Set
Actual Time 8:03 AM CST 5:24 PM CST
Civil Twilight 7:32 AM CST 5:55 PM CST
Nautical Twilight 6:58 AM CST 6:29 PM CST
Astronomical Twilight 6:25 AM CST 7:03 PM CST
Moon 10:08 AM CST (1/4) 9:48 PM CST (1/4)
Length of Visible Light 10h 22m
Length of Day
9h 21m
Waxing Crescent, 15% of the Moon is Illuminated
Jan 4
Waxing Crescent
Jan 7
First Quarter
Jan 15
Full
Jan 23
Last Quarter
Jan 30
New

Hourly Weather History & Observations

Time (CST) Temp. Windchill Dew Point Humidity Pressure Visibility Wind Dir Wind Speed Gust Speed Precip Events Conditions
12:15 AM 34.5 °F 27.9 °F 29.1 °F 81% 29.66 in 10.0 mi NW 8.1 mph - N/A   Clear
12:35 AM 34.9 °F 27.7 °F 30.0 °F 82% 29.63 in 10.0 mi NNW 9.2 mph - N/A   Clear
12:55 AM 36.5 °F 29.2 °F 31.6 °F 83% 29.64 in 10.0 mi NNW 10.4 mph - N/A   Clear
1:15 AM 37.9 °F 29.6 °F 31.5 °F 77% 29.66 in 10.0 mi NNW 13.8 mph - N/A   Clear
1:35 AM 38.8 °F 30.4 °F 31.1 °F 74% 29.67 in 10.0 mi NNW 15.0 mph - N/A   Clear
1:55 AM 39.2 °F 32.0 °F 30.6 °F 71% 29.68 in 10.0 mi NNW 11.5 mph - N/A   Scattered Clouds
2:15 AM 39.2 °F 33.0 °F 30.2 °F 70% 29.68 in 10.0 mi NNW 9.2 mph - N/A   Mostly Cloudy
2:35 AM 37.4 °F 31.4 °F 30.2 °F 75% 29.69 in 10.0 mi NW 8.1 mph - N/A   Scattered Clouds
2:55 AM 37.6 °F 32.3 °F 30.0 °F 74% 29.69 in 10.0 mi NW 6.9 mph - N/A   Clear
3:15 AM 36.1 °F 31.4 °F 29.8 °F 78% 29.71 in 10.0 mi NW 5.8 mph - N/A   Mostly Cloudy
3:35 AM 35.2 °F 30.3 °F 29.1 °F 78% 29.73 in 10.0 mi NW 5.8 mph - N/A   Overcast
3:55 AM 34.9 °F 28.3 °F 29.8 °F 82% 29.74 in 10.0 mi NNW 8.1 mph - N/A   Overcast
4:15 AM 36.3 °F 24.7 °F 28.4 °F 73% 29.76 in 10.0 mi North 24.2 mph 33.4 mph N/A   Overcast
4:35 AM 33.8 °F 23.5 °F 25.7 °F 72% 29.78 in 10.0 mi North 16.1 mph - N/A   Overcast
4:55 AM 32.9 °F 20.7 °F 24.8 °F 72% 29.79 in 10.0 mi North 21.9 mph 28.8 mph N/A   Mostly Cloudy
5:15 AM 32.4 °F 20.3 °F 24.3 °F 72% 29.80 in 10.0 mi North 20.7 mph 28.8 mph N/A   Mostly Cloudy
5:35 AM 31.3 °F 17.9 °F 23.5 °F 73% 29.84 in 10.0 mi North 24.2 mph 34.5 mph N/A   Scattered Clouds
5:55 AM 30.2 °F 17.8 °F 22.6 °F 73% 29.84 in 10.0 mi North 19.6 mph 28.8 mph N/A   Mostly Cloudy
6:15 AM 30.0 °F 19.5 °F 22.6 °F 74% 29.83 in 10.0 mi NNE 13.8 mph 20.7 mph N/A   Overcast
6:35 AM 29.1 °F 16.4 °F 21.4 °F 73% 29.84 in 10.0 mi North 19.6 mph 28.8 mph N/A   Overcast
6:55 AM 28.0 °F 16.1 °F 20.7 °F 74% 29.85 in 10.0 mi North 16.1 mph 24.2 mph N/A   Scattered Clouds
7:15 AM 27.5 °F 15.9 °F 20.3 °F 74% 29.86 in 10.0 mi North 15.0 mph 18.4 mph N/A   Scattered Clouds
7:35 AM 26.6 °F 13.8 °F 19.4 °F 74% 29.87 in 10.0 mi North 17.3 mph - N/A   Mostly Cloudy
7:55 AM 26.1 °F 13.6 °F 19.0 °F 75% 29.90 in 10.0 mi North 16.1 mph - N/A   Overcast
8:15 AM 24.8 °F 10.3 °F 18.1 °F 76% 29.92 in 10.0 mi North 20.7 mph 25.3 mph N/A   Overcast
8:35 AM 24.4 °F 11.0 °F 18.1 °F 77% 29.93 in 10.0 mi North 17.3 mph 27.6 mph N/A   Overcast
8:55 AM 24.1 °F 11.0 °F 18.3 °F 79% 29.96 in 10.0 mi North 16.1 mph 23.0 mph N/A   Overcast
9:15 AM 24.3 °F 12.2 °F 18.3 °F 78% 29.98 in 10.0 mi North 13.8 mph - N/A   Overcast
9:35 AM 24.8 °F 12.4 °F 18.3 °F 76% 29.99 in 10.0 mi North 15.0 mph 18.4 mph N/A   Overcast
9:55 AM 25.5 °F 12.0 °F 18.5 °F 75% 29.99 in 10.0 mi North 18.4 mph - N/A   Overcast
10:15 AM 25.7 °F 12.3 °F 18.9 °F 75% 29.99 in 10.0 mi North 18.4 mph 23.0 mph N/A   Overcast
10:35 AM 25.5 °F 12.0 °F 18.0 °F 73% 30.02 in 10.0 mi North 18.4 mph 26.5 mph N/A   Overcast
10:55 AM 24.8 °F 10.7 °F 17.1 °F 72% 30.01 in 10.0 mi North 19.6 mph - N/A   Overcast
11:15 AM 25.7 °F 12.7 °F 16.7 °F 69% 29.99 in 10.0 mi North 17.3 mph 24.2 mph N/A   Overcast
11:35 AM 25.0 °F 11.7 °F 16.0 °F 69% 29.99 in 10.0 mi North 17.3 mph 24.2 mph N/A   Mostly Cloudy
11:55 AM 25.2 °F 12.0 °F 15.8 °F 68% 30.01 in 10.0 mi North 17.3 mph 20.7 mph N/A   Scattered Clouds
12:15 PM 25.3 °F 12.6 °F 16.0 °F 68% 30.01 in 10.0 mi North 16.1 mph - N/A   Mostly Cloudy
12:35 PM 25.9 °F 15.3 °F 16.5 °F 68% 30.00 in 10.0 mi North 11.5 mph - N/A   Overcast
12:55 PM 26.6 °F 13.4 °F 15.3 °F 62% 29.99 in 10.0 mi North 18.4 mph - N/A   Overcast
1:15 PM 27.5 °F 15.4 °F 15.1 °F 60% 29.99 in 10.0 mi North 16.1 mph 20.7 mph N/A   Overcast
1:30 PM 27.7 °F 15.6 °F 14.9 °F 59% 29.99 in 10.0 mi North 16.1 mph 20.7 mph N/A   Overcast
1:55 PM 27.3 °F 14.4 °F 12.0 °F 53% 29.98 in 10.0 mi North 18.4 mph 23.0 mph N/A   Mostly Cloudy
2:15 PM 27.0 °F 14.7 °F 10.2 °F 49% 29.98 in 10.0 mi North 16.1 mph 21.9 mph N/A   Scattered Clouds
2:35 PM 27.1 °F 13.8 °F 10.2 °F 49% 29.99 in 10.0 mi North 19.6 mph - N/A   Clear
2:50 PM 25.5 °F 12.4 °F 6.8 °F 45% 29.99 in 10.0 mi North 17.3 mph 20.7 mph N/A   Clear
3:15 PM 26.1 °F 13.6 °F 4.6 °F 40% 30.00 in 10.0 mi North 16.1 mph - N/A   Clear
3:35 PM 26.1 °F 14.0 °F 4.8 °F 40% 30.02 in 10.0 mi North 15.0 mph 19.6 mph N/A   Clear
3:55 PM 25.7 °F 13.1 °F 3.6 °F 39% 30.03 in 10.0 mi North 16.1 mph - N/A   Scattered Clouds
4:15 PM 25.5 °F 12.9 °F 2.8 °F 38% 30.03 in 10.0 mi North 16.1 mph - N/A   Mostly Cloudy
4:35 PM 25.5 °F 12.0 °F 3.2 °F 38% 30.04 in 10.0 mi North 18.4 mph - N/A   Overcast
4:55 PM 24.8 °F 12.9 °F 3.4 °F 40% 30.05 in 10.0 mi North 13.8 mph - N/A   Mostly Cloudy
5:15 PM 24.4 °F 10.2 °F 5.2 °F 44% 30.05 in 10.0 mi North 19.6 mph 23.0 mph N/A   Overcast
5:35 PM 23.7 °F 10.5 °F 3.6 °F 42% 30.06 in 10.0 mi North 16.1 mph 21.9 mph N/A   Overcast
5:55 PM 23.4 °F 9.6 °F 5.2 °F 46% 30.08 in 10.0 mi North 17.3 mph - N/A   Overcast
6:15 PM 22.8 °F 9.4 °F 4.6 °F 46% 30.10 in 10.0 mi North 16.1 mph - N/A   Overcast
6:35 PM 22.1 °F 8.5 °F 3.2 °F 44% 30.10 in 10.0 mi North 16.1 mph - N/A   Overcast
6:50 PM 21.7 °F 7.1 °F 3.0 °F 45% 30.10 in 10.0 mi North 18.4 mph 23.0 mph N/A   Overcast
7:15 PM 20.8 °F 9.0 °F 1.8 °F 44% 30.12 in 10.0 mi North 11.5 mph - N/A   Overcast
7:35 PM 20.5 °F 8.6 °F 2.3 °F 45% 30.13 in 10.0 mi North 11.5 mph 21.9 mph N/A   Overcast
7:50 PM 20.1 °F 6.4 °F 2.5 °F 46% 30.13 in 10.0 mi North 15.0 mph 20.7 mph N/A   Overcast
8:15 PM 19.4 °F 5.5 °F 2.1 °F 47% 30.13 in 10.0 mi North 15.0 mph - N/A   Overcast
8:35 PM 18.5 °F 4.3 °F -0.2 °F 44% 30.14 in 10.0 mi North 15.0 mph 20.7 mph N/A   Mostly Cloudy
8:50 PM 18.0 °F 4.2 °F -1.3 °F 43% 30.14 in 10.0 mi North 13.8 mph - N/A   Scattered Clouds
9:15 PM 16.7 °F 2.0 °F -0.2 °F 47% 30.15 in 10.0 mi North 15.0 mph 21.9 mph N/A   Clear
9:35 PM 15.1 °F 4.2 °F 0.7 °F 53% 30.16 in 10.0 mi NNE 8.1 mph - N/A   Clear
9:55 PM 15.3 °F 2.8 °F 1.9 °F 56% 30.16 in 10.0 mi NNE 10.4 mph - N/A   Clear
10:15 PM 14.9 °F 2.3 °F 2.1 °F 57% 30.18 in 10.0 mi North 10.4 mph - N/A   Clear
10:35 PM 14.9 °F 1.6 °F 2.8 °F 59% 30.18 in 10.0 mi North 11.5 mph 17.3 mph N/A   Scattered Clouds
10:55 PM 14.7 °F 2.1 °F 3.0 °F 60% 30.18 in 10.0 mi NNE 10.4 mph - N/A   Clear
11:15 PM 14.0 °F 2.0 °F 3.0 °F 62% 30.18 in 10.0 mi NNE 9.2 mph - N/A   Clear
11:35 PM 14.0 °F 2.0 °F 2.3 °F 60% 30.19 in 10.0 mi North 9.2 mph - N/A   Clear
11:55 PM 13.5 °F 0.5 °F 1.6 °F 59% 30.19 in 10.0 mi North 10.4 mph - N/A   Clear